User: anonymous   Login
Location: Unspecified
(0.0000°N, 0.0000°E)
Time: 23:04:26
(UTC+00:00)
Language:

NOSS 2-1 (E) - Orbit

View from above orbital plane
View from above orbital plane
View from above satellite
View from above satellite

Ground track
Ground track

The orbit data is extracted from the following two-line orbital elements,

1 20642U 90050E   24099.39131144 0.00007498  00000-0  60205-3 0    05
2 20642  63.3070 192.7497 0918946  67.3591 292.9182 13.50892747    01
Epoch (UTC): 08 April 2024 09:23:29
Eccentricity: 0.0918946
inclination: 63.3070°
perigee height: 384 km
apogee height: 1753 km
right ascension of ascending node: 192.7497°
argument of perigee: 67.3591°
revolutions per day: 13.50892747
mean anomaly at epoch: 292.9182°
orbit number at epoch: 0

The dashed part of the orbit path shows where the satellite is in the earth's shadow,  

DLR